Regional Weather Roundup
Issued by NWS

Home | Current Version | Previous Version | Text Only | Print | Product List | Glossary Off
Versions: 1 2 3 4 5 6 7 8 9 10 11 12 13 14 15 16 17 18 19 20 21 22 23 24 25 26 27

000
ASUS45 KPSR 290010
RWRAZ

ARIZONA HOURLY REGIONAL WEATHER ROUNDUP
NATIONAL WEATHER SERVICE PHOENIX AZ
500 PM MST FRI APR 28 2017

NOTE: FAIR INDICATES FEW OR NO CLOUDS BELOW 12,000 FEET WITH NO
SIGNIFICANT WEATHER AND/OR OBSTRUCTIONS TO VISIBILITY.

AZZ001>003-036-290100-
NORTHWEST ARIZONA

CITY           SKY/WX    TMP DP  RH WIND       PRES   REMARKS
BULLHEAD CITY  SUNNY     77   3   6 N28G37    29.73S
KINGMAN        SUNNY     63   6  10 N30G40    29.82R
6HR MIN TEMP:  62; 6HR MAX TEMP:  65;

$$

AZZ004>008-015-016-018-290100-
NORTH CENTRAL ARIZONA

CITY           SKY/WX    TMP DP  RH WIND       PRES   REMARKS
GRAND CANYON   MOSUNNY   44   9  23 NW14G21   29.83R
6HR MIN TEMP:  44; 6HR MAX TEMP:  49;

WILLIAMS       MOSUNNY   46   3  17 NW25G31   29.82R
PRESCOTT       SUNNY     57  -5   8 NW28G35   29.76R
6HR MIN TEMP:  57; 6HR MAX TEMP:  66;

FLAGSTAFF      PTSUNNY   45   5  19 W13G25    29.78R
6HR MIN TEMP:  45; 6HR MAX TEMP:  53;

PAYSON         SUNNY     63  -8   6 W16G28    29.72R
PAGE           PTSUNNY   54  12  18 NW18G28   29.78R
6HR MIN TEMP:  53; 6HR MAX TEMP:  59;

$$

AZZ009>014-017-290100-
NORTHEAST ARIZONA

CITY           SKY/WX    TMP DP  RH WIND       PRES   REMARKS
WINSLOW        CLOUDY    55   8  15 N21G33    29.73R
6HR MIN TEMP:  55; 6HR MAX TEMP:  62;

SAINT JOHNS    LGT RAIN  42  38  85 NE12      29.72R
6HR MIN TEMP:  40; 6HR MAX TEMP:  50; 6HR PCP:  0.15;

WINDOW ROCK    CLOUDY    44  18  35 NW12G24   29.76S
6HR MIN TEMP:  38; 6HR MAX TEMP:  45; 6HR PCP:  0.01;

SHOW LOW       CLOUDY    43  30  61 NE15G21   29.74R
$$

AZZ540-542>544-546-548-290100-
GREATER PHOENIX AREA

CITY           SKY/WX    TMP DP  RH WIND       PRES   REMARKS
PHOENIX        MOSUNNY   83  10   6 NW26G41   29.57R
6HR MIN TEMP:  75; 6HR MAX TEMP:  87;

BUCKEYE        SUNNY     81   5   5 NW28G38   29.63R
GLENDALE       MOSUNNY   82   5   5 W28G37    29.61R
LUKE AFB       SUNNY     81  -1   4 NW29G37   29.59R DUST
6HR MIN TEMP:  77; 6HR MAX TEMP:  86;

DEER VALLEY    SUNNY     80   0   4 W25G38    29.60R
6HR MIN TEMP:  75; 6HR MAX TEMP:  87;

SCOTTSDALE     LGT RAIN  81   9   6 W21G32    29.60R
6HR MIN TEMP:  75; 6HR MAX TEMP:  84; 6HR PCP: TRACE;

MESA-FALCON    MOSUNNY  N/A N/A N/A W23G35    29.60R
MESA-GATEWAY   SUNNY     82  21  10 W25G39    29.58S
$$

AZZ539-553-290100-
SOUTHWEST MARICOPA COUNTY AND PINAL COUNTY

CITY           SKY/WX    TMP DP  RH WIND       PRES   REMARKS
CASA GRANDE    SUNNY     82  22  11 W17G26    29.60S
6HR MIN TEMP:  77; 6HR MAX TEMP:  83;

GILA BEND      MOSUNNY   83  15   7 NW25      29.61R
6HR MIN TEMP:  78; 6HR MAX TEMP:  86;

$$

AZZ503-504-507>509-290100-
SOUTHEAST ARIZONA

CITY           SKY/WX    TMP DP  RH WIND       PRES   REMARKS
TUCSON         PTSUNNY   80  43  26 W24G33    29.66R
6HR MIN TEMP:  78; 6HR MAX TEMP:  82;

DAVIS-MONTHAN  MOSUNNY   77  44  31 W22G28    29.64S
6HR MIN TEMP:  77; 6HR MAX TEMP:  81;

RYAN FIELD     SUNNY     79  45  29 W30G38    29.66R
NOGALES        PTSUNNY   77  38  24 SW23G30   29.72S
6HR MIN TEMP:  75; 6HR MAX TEMP:  79;

SIERRA VISTA   MOSUNNY   73  38  28 W25G40    29.72R
6HR MIN TEMP:  72; 6HR MAX TEMP:  76;

DOUGLAS        PTSUNNY   78  39  24 W24G32    29.68F
6HR MIN TEMP:  74; 6HR MAX TEMP:  81;

SAFFORD        MOSUNNY   74  45  35 NW30G38   29.55F
6HR MIN TEMP:  74; 6HR MAX TEMP:  79;

$$

AZZ532-290100-
SOUTHWEST ARIZONA

CITY           SKY/WX    TMP DP  RH WIND       PRES   REMARKS
YUMA           SUNNY     87  18   8 N16G23    29.63S
6HR MIN TEMP:  81; 6HR MAX TEMP:  88;

$$

CAZ041-043-047-048-061-525>527-560>570-290100-
SOUTHERN CALIFORNIA

CITY           SKY/WX    TMP DP  RH WIND       PRES   REMARKS
DOWNTOWN L.A.  MOSUNNY   84  18   8 NW9G20    29.70F
6HR MIN TEMP:  79; 6HR MAX TEMP:  85;

L.A. AIRPORT   MOSUNNY   66  50  56 W23       29.74F
6HR MIN TEMP:  65; 6HR MAX TEMP:  84;

SAN DIEGO      PTSUNNY   71  53  52 W12       29.76F
6HR MIN TEMP:  66; 6HR MAX TEMP:  75;

BURBANK        SUNNY     79  14   8 NW17G30   29.73F
6HR MIN TEMP:  74; 6HR MAX TEMP:  80;

ONTARIO        PTSUNNY   80  33  18 S14G22    29.72R
6HR MIN TEMP:  72; 6HR MAX TEMP:  82;

RIVERSIDE      SUNNY     81  35  19 W18G24    29.71S
6HR MIN TEMP:  77; 6HR MAX TEMP:  83;

PALM SPRINGS   SUNNY     88  18   7 NE7G25    29.67S
6HR MIN TEMP:  83; 6HR MAX TEMP:  90;

EL CENTRO NAS  MOSUNNY   88  19   8 NE15      29.64F
6HR MIN TEMP:  81; 6HR MAX TEMP:  88;

IMPERIAL       SUNNY     87  27  11 N12       29.62F
6HR MIN TEMP:  83; 6HR MAX TEMP:  89;

BLYTHE         MOSUNNY   85  11   6 N17G26    29.66R
6HR MIN TEMP:  79; 6HR MAX TEMP:  87;

NEEDLES        SUNNY     80   6   6 NE26G41   29.74R
6HR MIN TEMP:  76; 6HR MAX TEMP:  81;

$$

NVZ020-UTZ003-290100-
SOUTHERN NEVADA-UTAH

CITY           SKY/WX    TMP DP  RH WIND       PRES   REMARKS
LAS VEGAS      MOSUNNY   70   3   7 N22G38    29.82S
6HR MIN TEMP:  65; 6HR MAX TEMP:  72;

SALT LAKE CITY LGT RAIN  45  35  68 NW20      29.94S
6HR MIN TEMP:  38; 6HR MAX TEMP:  45; 6HR PCP:  0.03;

$$

NMZ009-TXZ055-290100-
NEW MEXICO-WEST TEXAS

CITY           SKY/WX    TMP DP  RH WIND       PRES   REMARKS
ALBUQUERQUE    LGT RAIN  40  37  89 SE8       29.75S WCI  34
6HR MIN TEMP:  39; 6HR MAX TEMP:  45; 6HR PCP:  0.10;

EL PASO        CLOUDY    82  30  15 SW30G41   29.57R
6HR MIN TEMP:  78; 6HR MAX TEMP:  86;

$$


........................KEY........................
SKY/WX - SKY CONDITION/WEATHER
TMP    - TEMPERATURE IN FAHRENHEIT
DP     - DEW POINT IN FAHRENHEIT
RH     - RELATIVE HUMIDITY IN PERCENT
WIND   - DIRECTION AND SPEED IN MILES PER HOUR (MPH)
VRB    - VARIABLE WIND DIRECTION
PRES   - MEAN SEA LEVEL PRESSURE IN INCHES OF MERCURY
         F - FALLING PRESSURE   R - RISING PRESSURE
         S - STEADY PRESSURE
VSB    - VISIBILITY IN MILES
HX     - HEAT INDEX IN FAHRENHEIT
WCI    - WIND CHILL INDEX IN FAHRENHEIT
TC     - TEMPERATURE IN CELSIUS WHICH IS ALSO KNOWN AS
         TEMPERATURE IN CENTIGRADE
AFB    - AIR FORCE BASE
         LUKE AFB IS LUKE AIR FORCE BASE
         DAVIS-MONTHAN IS DAVIS-MONTHAN AIR FORCE BASE
NAS    - NAVAL AIR STATION
         EL CENTRO NAS IS EL CENTRO NAVAL AIR STATION
N/A    - NOT AVAILABLE





USA.gov is the U.S. government's official web portal to all federal, state and local government web resources and services.